Printer-friendly version

IAU Minor Planet Center

Minor Planet Center

MPEC 2005-E33 : 2005 EN30

The following Minor Planet Electronic Circular may be linked-to from your own Web pages, but must not otherwise be redistributed electronically.


Read MPEC 2005-E32 Read MPEC 2005-E34


M.P.E.C. 2005-E33                                Issued 2005 Mar. 7, 12:38 UT

     The Minor Planet Electronic Circulars contain information on unusual
         minor planets and routine data on comets.  They are published
   on behalf of Commission 20 of the International Astronomical Union by the
          Minor Planet Center, Smithsonian Astrophysical Observatory,
                          Cambridge, MA 02138, U.S.A.

                  Supported in part by the Brinson Foundation
             Prepared using the Tamkin Foundation Computer Network

                              MPC@CFA.HARVARD.EDU
          URL http://cfa-www.harvard.edu/iau/mpc.html  ISSN 1523-6714

                                   2005 EN30

Observations:
     K05E30N* C2005 03 04.38387 11 08 56.84 +05 40 58.4          20.4 R EE033G96
     K05E30N  C2005 03 04.38914 11 08 55.67 +05 40 28.3          20.2 R EE033G96
     K05E30N  C2005 03 04.39446 11 08 54.53 +05 39 58.0          19.0 R EE033G96
     K05E30N  C2005 03 04.39976 11 08 53.38 +05 39 27.3          19.9 R EE033G96
     K05E30N  C2005 03 04.43120 11 08 46.57 +05 36 26.3          19.7 R EE033G96
     K05E30N  C2005 03 04.43775 11 08 45.13 +05 35 48.9          19.6 R EE033G96
     K05E30N  C2005 03 04.44432 11 08 43.76 +05 35 11.1          19.4 R EE033G96
     K05E30N  C2005 03 04.45087 11 08 42.35 +05 34 33.3          19.4 R EE033G96
     K05E30N  C2005 03 04.89366 11 07 14.95 +04 51 55.4                 EE033246
     K05E30N  C2005 03 04.89479 11 07 14.68 +04 51 49.3                 EE033246
     K05E30N  C2005 03 04.89694 11 07 14.21 +04 51 36.1                 EE033246
     K05E30N  C2005 03 04.89806 11 07 13.90 +04 51 30.3                 EE033246
     K05E30N  C2005 03 04.89931 11 07 13.60 +04 51 21.7                 EE033246
     K05E30N  C2005 03 04.89987 11 07 13.49 +04 51 18.8                 EE033246
     K05E30N WC2005 03 07.00243 10 59 59.04 +01 26 17.6                 EE033J95
     K05E30N WC2005 03 07.09897 10 59 37.77 +01 16 46.9          20.5 R EE033J95
     K05E30N  C2005 03 07.34031 10 58 48.34 +00 53 11.1          20.1 R EE033854
     K05E30N  C2005 03 07.34596 10 58 47.06 +00 52 36.5          20.1 R EE033854

Observer details:
246 Klet Observatory-KLENOT.  Observers J. Ticha, M. Tichy.  Measurer M. Tichy.
    1.06-m KLENOT Telescope + CCD.
854 Sabino Canyon Observatory, Tucson.  Observer J. E. McGaha.  0.36-m f/10.0
    Schmidt-Cassegrain + CCD.
G96 Mt. Lemmon Survey.  Observer E. C. Beshore.  Measurers E. C. Beshore,
    C. M. Casey, E. J. Christensen, G. J. Garradd, R. E. Hill, S. M. Larson,
    R. H. McNaught.  1.5-m reflector + CCD.
J95 Great Shefford.  Observer P. Birtwhistle.  0.30-m f/6.3 Schmidt-Cassegrain
    + CCD.

Orbital elements:
2005 EN30
Epoch 2005 Feb. 19.0 TT = JDT 2453420.5                 MPC
M 345.48492              (2000.0)            P               Q
n   0.44718649     Peri.  196.50286     -0.99495925     +0.03057681
a   1.6935977      Node   344.29290     +0.04325069     -0.72839959
e   0.3023959      Incl.   20.65749     -0.09047361     -0.68446994
P   2.20           H   23.1           G   0.15
From 17 observations 2005 Mar. 4-7.

Ephemeris:
2005 EN30                a,e,i = 1.69, 0.30, 21                  q = 1.1815
Date    TT    R. A. (2000) Decl.     Delta      r     Elong.  Phase     V
2005 03 01    11 20.12   +10 53.8    0.209    1.197   171.4     7.1    20.6
2005 03 11    10 46.09   -05 08.2    0.197    1.186   166.8    11.0    20.6
2005 03 21    10 13.89   -20 04.9    0.214    1.182   147.0    27.3    21.3
2005 03 31    09 50.42   -30 41.4    0.251    1.183   132.5    38.5    22.0
2005 04 10    09 38.03   -37 24.4    0.299    1.191   123.0    44.9    22.6

Timothy B. Spahr             (C) Copyright 2005 MPC           M.P.E.C. 2005-E33

Read MPEC 2005-E32 Read MPEC 2005-E34


Our Web policy. Index to the CBAT/MPC/ICQ pages.


Valid HTML 4.01!